TimeAWST,TemperatureF,Dew PointF,Humidity,Sea Level PressureIn,VisibilityMPH,Wind Direction,Wind SpeedMPH,Gust SpeedMPH,PrecipitationIn,Events,Conditions,WindDirDegrees,DateUTC
12:00 AM,87,77,65,29.73,,West,10.4,,,,,260,2012-12-30 16:00:00
12:00 AM,86.0,77.0,74,29.71,6.2,West,10.4,-,N/A,,Unknown,260,2012-12-30 16:00:00
12:30 AM,86.0,77.0,74,29.71,6.2,WSW,10.4,-,N/A,,Unknown,250,2012-12-30 16:30:00
1:00 AM,86.0,77.0,74,29.71,6.2,West,10.4,-,N/A,,Unknown,270,2012-12-30 17:00:00
1:30 AM,86.0,77.0,74,29.68,6.2,West,13.8,-,N/A,,Unknown,280,2012-12-30 17:30:00
2:00 AM,86,77,68,29.70,,West,15.0,,,,,270,2012-12-30 18:00:00
2:00 AM,86.0,77.0,74,29.68,6.2,West,15.0,-,N/A,,Unknown,270,2012-12-30 18:00:00
2:30 AM,86.0,77.0,74,29.68,-9999.0,West,12.7,-,N/A,,Unknown,270,2012-12-30 18:30:00
3:00 AM,85,78,74,29.68,,West,13.8,,,,,270,2012-12-30 19:00:00
3:00 AM,86.0,78.8,79,29.68,-9999.0,West,13.8,-,N/A,,Unknown,270,2012-12-30 19:00:00
3:30 AM,86.0,78.8,79,29.68,-9999.0,WSW,9.2,-,N/A,,Unknown,250,2012-12-30 19:30:00
4:00 AM,86.0,78.8,79,29.68,-9999.0,West,10.4,-,N/A,,Unknown,270,2012-12-30 20:00:00
4:30 AM,86.0,77.0,74,29.68,-9999.0,WSW,10.4,-,N/A,,Unknown,240,2012-12-30 20:30:00
5:00 AM,85,76,67,29.70,,WSW,9.2,,,,,240,2012-12-30 21:00:00
5:00 AM,84.2,75.2,74,29.68,-9999.0,WSW,9.2,-,N/A,,Unknown,240,2012-12-30 21:00:00
5:30 AM,84.2,75.2,74,29.68,-9999.0,WSW,8.1,-,N/A,,Unknown,240,2012-12-30 21:30:00
6:00 AM,84,75,68,29.71,19,West,8.1,,,,Mostly Cloudy,260,2012-12-30 22:00:00
6:00 AM,84.2,75.2,74,29.71,-9999.0,West,8.1,-,N/A,,Clear,260,2012-12-30 22:00:00
6:30 AM,84.2,75.2,74,29.71,-9999.0,West,9.2,-,N/A,,Clear,260,2012-12-30 22:30:00
7:00 AM,87.8,73.4,62,29.71,-9999.0,WSW,10.4,-,N/A,,Clear,250,2012-12-30 23:00:00
7:30 AM,91.4,69.8,49,29.71,-9999.0,WSW,15.0,-,N/A,,Clear,250,2012-12-30 23:30:00
8:00 AM,91,69,39,29.74,,SW,10.4,,,,,230,2012-12-31 00:00:00
8:00 AM,91.4,69.8,49,29.74,-9999.0,SW,10.4,-,N/A,,Clear,230,2012-12-31 00:00:00
8:30 AM,91.4,69.8,49,29.71,-9999.0,West,17.3,-,N/A,,Clear,260,2012-12-31 00:30:00
9:00 AM,92,68,36,29.74,19,SW,11.5,,,,Mostly Cloudy,230,2012-12-31 01:00:00
9:00 AM,93.2,68.0,44,29.74,-9999.0,SW,11.5,-,N/A,,Clear,230,2012-12-31 01:00:00
9:30 AM,95.0,69.8,44,29.74,6.2,SW,9.2,-,N/A,,Unknown,230,2012-12-31 01:30:00
10:00 AM,96.8,69.8,41,29.71,-9999.0,WSW,4.6,-,N/A,,Clear,250,2012-12-31 02:00:00
10:30 AM,98.6,68.0,37,29.71,-9999.0,WNW,6.9,-,N/A,,Clear,300,2012-12-31 02:30:00
11:00 AM,98,72,33,29.71,,NNW,15.0,,,,,330,2012-12-31 03:00:00
11:00 AM,96.8,71.6,44,29.71,-9999.0,NNW,15.0,-,N/A,,Clear,330,2012-12-31 03:00:00
11:30 AM,96.8,71.6,44,29.71,-9999.0,NNW,15.0,-,N/A,,Clear,330,2012-12-31 03:30:00
12:00 PM,98,71,32,29.70,19,NNW,17.3,,,,Partly Cloudy,330,2012-12-31 04:00:00
12:00 PM,96.8,71.6,44,29.68,-9999.0,NNW,17.3,-,N/A,,Clear,330,2012-12-31 04:00:00
12:30 PM,95.0,75.2,53,29.68,6.2,NW,17.3,-,N/A,,Unknown,320,2012-12-31 04:30:00
1:00 PM,95.0,75.2,53,29.68,-9999.0,NW,17.3,-,N/A,,Clear,310,2012-12-31 05:00:00
1:30 PM,95.0,75.2,53,29.68,-9999.0,NW,18.4,-,N/A,,Clear,310,2012-12-31 05:30:00
2:00 PM,96,72,37,29.68,,NW,17.3,,,,,310,2012-12-31 06:00:00
2:00 PM,95.0,73.4,49,29.65,-9999.0,NW,17.3,-,N/A,,Clear,310,2012-12-31 06:00:00
2:30 PM,96.8,71.6,44,29.65,6.2,NW,18.4,-,N/A,,Unknown,310,2012-12-31 06:30:00
3:00 PM,100,71,29,29.66,19,WNW,17.3,,,,Scattered Clouds,290,2012-12-31 07:00:00
3:00 PM,100.4,69.8,37,29.65,-9999.0,WNW,17.3,-,N/A,,Clear,290,2012-12-31 07:00:00
3:30 PM,100.4,64.4,31,29.65,6.2,WNW,17.3,-,N/A,,Unknown,300,2012-12-31 07:30:00
4:00 PM,98.6,73.4,44,29.65,6.2,WNW,10.4,-,N/A,,Unknown,300,2012-12-31 08:00:00
4:17 PM,89.6,66.2,46,29.68,6.2,ESE,18.4,29.9,N/A,,Scattered Clouds,120,2012-12-31 08:17:00
4:30 PM,89.6,66.2,46,29.68,6.2,SE,21.9,-,N/A,,Scattered Clouds,130,2012-12-31 08:30:00
5:00 PM,92,62,27,29.68,,ESE,18.4,,,,,120,2012-12-31 09:00:00
5:00 PM,91.4,62.6,38,29.65,6.2,ESE,18.4,-,N/A,,Unknown,120,2012-12-31 09:00:00
5:30 PM,93.2,60.8,34,29.68,6.2,East,16.1,-,N/A,,Unknown,90,2012-12-31 09:30:00
6:00 PM,90,67,38,29.71,2,East,16.1,,,,,90,2012-12-31 10:00:00
6:00 PM,89.6,68.0,49,29.71,1.6,East,16.1,-,N/A,,Unknown,90,2012-12-31 10:00:00
6:30 PM,87.8,69.8,55,29.71,2.2,ESE,13.8,-,N/A,,Unknown,120,2012-12-31 10:30:00
7:00 PM,89.6,68.0,49,29.71,5.0,ESE,11.5,-,N/A,,Unknown,120,2012-12-31 11:00:00
7:01 PM,89.6,68.0,49,29.71,5.0,ESE,11.5,-,N/A,,Unknown,120,2012-12-31 11:01:00
7:30 PM,87.8,66.2,49,29.71,6.2,ESE,10.4,-,N/A,,Unknown,120,2012-12-31 11:30:00
8:00 PM,87,65,38,29.73,,SSE,5.8,,,,,160,2012-12-31 12:00:00
8:00 PM,87.8,64.4,46,29.71,6.2,SSE,5.8,-,N/A,,Unknown,160,2012-12-31 12:00:00
8:30 PM,87.8,64.4,46,29.74,6.2,SSE,5.8,-,N/A,,Unknown,150,2012-12-31 12:30:00
9:00 PM,87,64,37,29.75,,SSW,6.9,,,,,200,2012-12-31 13:00:00
9:00 PM,87.8,64.4,46,29.74,6.2,SSW,6.9,-,N/A,,Unknown,200,2012-12-31 13:00:00
9:30 PM,87.8,64.4,46,29.74,6.2,SW,3.5,-,N/A,,Unknown,230,2012-12-31 13:30:00
10:00 PM,86.0,64.4,48,29.74,6.2,SW,2.3,-,N/A,,Unknown,230,2012-12-31 14:00:00
10:30 PM,86.0,66.2,51,29.77,6.2,ESE,8.1,-,N/A,,Unknown,110,2012-12-31 14:30:00
11:00 PM,86,68,46,29.76,,SE,8.1,,,,,130,2012-12-31 15:00:00
11:00 PM,86.0,68.0,55,29.74,6.2,SE,8.1,-,N/A,,Unknown,130,2012-12-31 15:00:00
11:30 PM,86.0,69.8,58,29.74,6.2,SSE,5.8,-,N/A,,Unknown,150,2012-12-31 15:30:00